Alexandria, Egypt

3:47 PM EET on August 27, 2016 (GMT +0200)
Alexandria

Weather History for 62318 - July, 2013

Change the Weather History Date:

Thursday, July 11, 2013

  Actual Average Record
Temperature  
Mean Temperature 81 °F -  
Max Temperature 86 °F 84 °F - ()
Min Temperature 76 °F 73 °F - ()
Cooling Degree Days 16    
Growing Degree Days 31 (Base 50)    
Moisture  
Dew Point 71 °F    
Average Humidity 73    
Maximum Humidity 83    
Minimum Humidity 57    
Precipitation  
Precipitation 0.00 in 0.00 in - ()
Sea Level Pressure  
Sea Level Pressure 29.75 in    
Wind  
Wind Speed 10 mph ()    
Max Wind Speed 15 mph    
Max Gust Speed -    
Visibility 6.2 miles    
Events      
T = Trace of Precipitation, MM = Missing Value Source: Averaged Metar Reports

Daily Weather History Graph

Daily Weather History Graph

Search for Another Location

Airport or City:

Trip Planner

Search our weather history database for the weather conditions in past years. The results will help you decide how hot, cold, wet, or windy it might be!

Date:

Astronomy

Jul. 11, 2013 Rise Set
Actual Time 5:04 AM EET 7:06 PM EET
Civil Twilight 4:36 AM EET 7:34 PM EET
Nautical Twilight 4:03 AM EET 8:07 PM EET
Astronomical Twilight 3:27 AM EET 8:43 PM EET
Moon 7:49 AM EET (7/11) 8:53 PM EET (7/11)
Length of Visible Light 14h 57m
Length of Day
14h 02m
Waxing Crescent, 9% of the Moon is Illuminated
Jul 11
Waxing Crescent
Jul 16
First Quarter
Jul 22
Full
Jul 29
Last Quarter
Aug 6
New

Hourly Weather History & Observations

Time (EET) Temp. Heat Index Dew Point Humidity Pressure Visibility Wind Dir Wind Speed Gust Speed Precip Events Conditions
12:00 AM 77.0 °F - 71.6 °F 83% 29.71 in 6.2 mi WNW 10.4 mph - N/A   Scattered Clouds
1:00 AM 77.0 °F - 71.6 °F 83% 29.71 in 6.2 mi NW 9.2 mph - N/A   Scattered Clouds
2:00 AM 77 °F - 71 °F 76% 29.72 in 6 mi NW 12.7 mph - -   Partly Cloudy
2:00 AM 77.0 °F - 71.6 °F 83% 29.71 in 6.2 mi NW 12.7 mph - N/A   Scattered Clouds
3:00 AM 77.0 °F - 71.6 °F 83% 29.71 in 6.2 mi WNW 9.2 mph - N/A   Scattered Clouds
4:00 AM 77.0 °F - 69.8 °F 78% 29.71 in 6.2 mi WNW 10.4 mph - N/A   Partly Cloudy
5:00 AM 77 °F - 71 °F 75% 29.71 in 6 mi NW 9.2 mph - -   Partly Cloudy
5:00 AM 77.0 °F - 69.8 °F 78% 29.71 in 6.2 mi NW 9.2 mph - N/A   Scattered Clouds
6:00 AM 77.0 °F - 69.8 °F 78% 29.71 in 6.2 mi NW 10.4 mph - N/A   Scattered Clouds
7:00 AM 78.8 °F - 69.8 °F 74% 29.71 in 6.2 mi NW 9.2 mph - N/A   Scattered Clouds
8:00 AM 81 °F - 71 °F 64% 29.74 in 6 mi WNW 10.4 mph - -   Scattered Clouds
8:00 AM 80.6 °F 84.6 °F 71.6 °F 74% 29.74 in 6.2 mi WNW 10.4 mph - N/A   Partly Cloudy
9:00 AM 82.4 °F 87.2 °F 71.6 °F 70% 29.74 in 6.2 mi NW 11.5 mph - N/A   Scattered Clouds
10:00 AM 82.4 °F 87.2 °F 71.6 °F 70% 29.77 in 6.2 mi WNW 11.5 mph - N/A   Scattered Clouds
11:00 AM 83 °F - 71 °F 59% 29.77 in 6 mi NW 12.7 mph - -   Partly Cloudy
11:00 AM 84.2 °F 89.6 °F 71.6 °F 66% 29.77 in 6.2 mi NW 12.7 mph - N/A   Scattered Clouds
12:00 PM 84.2 °F 89.6 °F 71.6 °F 66% 29.77 in 6.2 mi WNW 15.0 mph - N/A   Scattered Clouds
1:00 PM 84.2 °F 89.6 °F 71.6 °F 66% 29.77 in 6.2 mi NW 15.0 mph - N/A   Scattered Clouds
2:00 PM 86 °F - 73 °F 57% 29.77 in 6 mi WNW 13.8 mph - -   Partly Cloudy
2:00 PM 86.0 °F 93.4 °F 73.4 °F 66% 29.77 in 6.2 mi WNW 13.8 mph - N/A   Scattered Clouds
3:00 PM 84.2 °F 89.6 °F 71.6 °F 66% 29.77 in 6.2 mi WNW 15.0 mph - N/A   Scattered Clouds
4:00 PM 84.2 °F 89.6 °F 71.6 °F 66% 29.77 in 6.2 mi NW 15.0 mph - N/A   Scattered Clouds
5:00 PM 82 °F - 71 °F 62% 29.77 in 6 mi NW 15.0 mph - -   Partly Cloudy
5:00 PM 82.4 °F 87.2 °F 71.6 °F 70% 29.77 in 6.2 mi NW 15.0 mph - N/A   Scattered Clouds
6:00 PM 80.6 °F 84.6 °F 71.6 °F 74% 29.77 in 6.2 mi WNW 15.0 mph - N/A   Scattered Clouds
7:00 PM 78.8 °F - 71.6 °F 78% 29.77 in 6.2 mi NW 11.5 mph - N/A   Scattered Clouds
8:00 PM 77.0 °F - 69.8 °F 78% 29.77 in 6.2 mi NW 11.5 mph - N/A   Scattered Clouds
9:00 PM 77.0 °F - 69.8 °F 78% 29.80 in 6.2 mi WNW 9.2 mph - N/A   Scattered Clouds
10:00 PM 77.0 °F - 71.6 °F 83% 29.80 in 6.2 mi WNW 13.8 mph - N/A   Scattered Clouds
11:00 PM 77 °F - 71 °F 78% 29.82 in 6 mi NW 11.5 mph - -   Partly Cloudy
11:00 PM 77.0 °F - 71.6 °F 83% 29.83 in 6.2 mi NW 11.5 mph - N/A   Scattered Clouds